Location: Temagami
(47.0645°N, 79.7909°W)
Time: 06:29:05
(UTC-04:00)

ISS - Visible Passes

Search period start: 28 May 2022 00:00
Search period end: 07 June 2022 00:00
Orbit: 414 x 421 km, 51.6° (Epoch: 28 May)

Date Brightness Start Highest point End Pass type
(mag) Time Alt. Az. Time Alt. Az. Time Alt. Az.
28 May -2.6 22:49:00 10° W 22:51:59 29° SW 22:53:07 23° S visible
29 May -3.2 22:00:41 10° WNW 22:03:55 46° SW 22:06:43 13° SE visible
30 May -1.4 22:50:29 10° WSW 22:52:03 13° SW 22:53:16 11° SSW visible
31 May -1.8 22:01:32 10° W 22:04:04 20° SW 22:06:35 10° S visible
